Other Public Products
Issued by NWS Grand Forks, ND

Home | Current Version | Previous Version | Text Only | Print | Product List | Glossary Off
Versions: 1 2 3 4 5 6 7 8 9 10 11 12 13 14 15 16 17 18 19 20 21 22 23 24 25 26 27 28 29 30 31 32 33 34 35 36 37 38 39 40 41 42 43 44 45 46 47 48 49 50

000
FPUS83 KFGF 242031
OPUFGF
PRAIRIE TO PINES WEATHER ROUNDUP
NATIONAL WEATHER SERVICE EASTERN NORTH DAKOTA/GRAND FORKS ND
300 PM CDT MON APR 24 2017

 **SATELLITE DATA USED TO AUGMENT SKY COVER AT AUTOMATED STATIONS**
 *****  WEATHER ACROSS EASTERN NORTH DAKOTA  *****

CITY           SKY/WX    TMP DP  RH WIND       PRES   REMARKS
GRAND FORKS    LGT RAIN  38  36  92 N14       29.61S
GRAND FORKS AF CLOUDY    32  32 100 N13       29.63R WCI  22
GRAND CITY NWS NOT AVBL
BUXTON           N/A     39  39  99 N12         N/A
DEVILS LAKE    FLURRIES  33  30  88 NE16      29.66R WCI  23
FARGO          PTSUNNY   51  44  77 N17       29.51F
WAHPETON ARPT  CLOUDY    55  43  62 S12       29.51R
$$

 *****  WEATHER ACROSS CENTRAL AND WESTERN NORTH DAKOTA  *****

CITY           SKY/WX    TMP DP  RH WIND       PRES   REMARKS
JAMESTOWN      CLOUDY    35  35 100 N16       29.57F
BISMARCK       CLOUDY    40  34  79 N13       29.65R
MINOT          CLOUDY    34  29  82 N13       29.70R WCI  25
MINOT AFB      CLOUDY    32  28  83 N14       29.71R WCI  22
GARRISON         N/A     33  28  81 NE12      29.67S WCI  24
WILLISTON      CLOUDY    37  28  70 NE13      29.71S
DICKINSON      CLOUDY    38  32  79 N10       29.63R
HETTINGER      CLOUDY    45  38  76 N12       29.63S
$$

 *****  OTHER OBSERVATIONS NORTHEAST NORTH DAKOTA  *****

CITY           SKY/WX    TMP DP  RH WIND       PRES   REMARKS
WALHALLA       NOT AVBL
LANGDON        LGT SNOW  32  32 100 NE21      29.67F WCI  20
CAVALIER       LGT SNOW  34  32  93 NE13      29.70R WCI  25
GRAFTON        LGT SNOW  34  34 100 NE15      29.67F WCI  24
CANDO          NOT AVBL
FORT TOTTEN      N/A     33  33 100 NE7       29.95S
ROLLA          MIX PCPN  30  30 100 NE23      29.70F WCI  17
RUGBY          NOT AVBL
 ***** THE ABOVE OBSERVATIONS ARE NON NWS ARE NOT QUALITY
        CONTROLLED AND MAY MIS-REPORT RAIN FOR SNOW...
$$

 *****  OTHER OBSERVATIONS SOUTHEAST NORTH DAKOTA *****

CITY           SKY/WX    TMP DP  RH WIND       PRES   REMARKS
COOPERSTOWN    CLOUDY    34  34 100 N16       29.60F WCI  23
VALLEY CITY    DRIZZLE   36  36 100 N9G15     29.59S
OAKES          NOT AVBL
GWINNER        PTCLDY    45  41  87 MISG      29.54S
SHEYENNE NWR     N/A     46  41  82 N9        29.95S
BUFFALO          N/A     38  37  95 SE13        N/A
WYNDMERE         N/A     55  48  76 NW12        N/A
 ***** THE ABOVE OBSERVATIONS ARE NON NWS ARE NOT QUALITY
       CONTROLLED AND MAY MIS-REPORT RAIN FOR SNOW...
$$

  *****  WEATHER ACROSS NORTHERN MINNESOTA  *****

CITY           SKY/WX    TMP DP  RH WIND       PRES   REMARKS
FLAG ISLAND    LGT SNOW  32  30  93 NE10      29.72S VSB 3/4 WCI  24
WARROAD        LGT SNOW  34  30  86 E15       29.69F VSB 1   WCI  24
ROSEAU         SNOW      34  28  80 E12       29.68S VSB 1/2
HALLOCK        LGT SNOW  36  34  93 NE14      29.67F
THF RVR FALLS  LGT RAIN  36  33  89 NE17G23   29.61F
HALSTAD          N/A     45  43  93 NE13        N/A
FOSSTON        RAIN      43  37  81 E8        29.56F
BAUDETTE       LGT SNOW  33  31  92 E10       29.67S VSB 1   WCI  25
WASKISH        LGT RAIN  37  36  93 E10       29.62F
CROOKSTON      CLOUDY    37  37 100 NE13G18   29.59R
$$
  *****  WEATHER ACROSS CENTRAL AND WEST MINNESOTA  *****

CITY           SKY/WX    TMP DP  RH WIND       PRES   REMARKS
BEMIDJI        CLOUDY    46  37  68 E13       29.56F
PARK RAPIDS    CLOUDY    60  37  42 S24       29.53S
WADENA         FAIR      63  39  42 S22G28    29.53F
DETROIT LAKES  LGT RAIN  52  45  76 S9        29.54R
MOORHEAD       LGT RAIN  54  45  71 N12       29.52R
FERGUS FALLS   LGT RAIN  55  43  62 S15       29.51F
ELBOW LAKE     CLOUDY    60  40  46 W15       29.52F
MORRIS MN      FAIR      66  39  37 S20G25    29.50S
STAPLES        FAIR      63  32  31 S17G26    29.54F
WHEATON        FAIR      63  37  39 S9        29.51F
$$
  *****  WEATHER ELSEWHERE ACROSS MINNESOTA  *****

CITY           SKY/WX    TMP DP  RH WIND       PRES   REMARKS
DULUTH         CLOUDY    37  29  72 E17G26    29.72F
INTRNTL FALLS  LGT RAIN  37  30  75 E13       29.72F
ELY            FAIR      39  28  65 E12G18    29.76F
CLOQUET        FAIR      37  28  70 E18G25    29.70F
BRAINERD       CLOUDY    61  32  33 S15G26    29.58F
HIBBING        CLOUDY    43  31  62 SE18G25   29.68F
ALEXANDRIA     FAIR      67  37  33 S22G32    29.54F
SAINT CLOUD    FAIR      68  31  25 S22G35    29.57F
MINNEAPOLIS    CLOUDY    71  27  19 S22G32    29.63F
$$

  *****  WEATHER ACROSS SOUTH DAKOTA  *****

CITY           SKY/WX    TMP DP  RH WIND       PRES   REMARKS
SIOUX FALLS    CLOUDY    62  46  55 S7        29.55F
BROOKINGS      NOT AVBL
WATERTOWN      PTSUNNY   62  41  46 S21       29.49S
HURON          FAIR      56  42  59 NW16      29.52R
SISSETON         N/A     62  42  47 SW13      29.49R
ABERDEEN       PTSUNNY   50  37  61 N17G25    29.54R
MITCHELL       FAIR      59  42  53 W16       29.53S
PIERRE         CLOUDY    47  37  68 NW12      29.59S
MOBRIDGE       CLOUDY    48  34  58 N16       29.58R
RAPID CITY     FAIR      60  41  49 N26G32    29.57F
$$

  *****  SOME WEATHER IN NEARBY STATES *****

CITY           SKY/WX    TMP DP  RH WIND       PRES   REMARKS
GLASGOW MT     PTSUNNY   46  34  62 NE5       29.68F
GREAT FALLS MT CLOUDY    55  29  36 NW6       29.58F
CHEYENNE WY    LGT RAIN  53  34  48 SW21G29   29.66R
SCOTTSBLUFF NE FAIR      65  31  28 W6        29.61F
OMAHA NE       PTSUNNY   73  36  25 S26G36    29.57F
DES MOINES IA  FAIR      76  28  17 S28G39    29.66F
DAVENPORT IA   FAIR      75  25  15 S21G26    29.80F
CHICAGO IL     PTSUNNY   73  32  22 SE12      29.87F
EAU CLAIRE WI  FAIR      67  31  26 S16       29.72F
LA CROSSE WI   FAIR      73  31  21 S20G28    29.74F
$$

  *****  SOME NATIONAL WEATHER *****

CITY           SKY/WX    TMP DP  RH WIND       PRES   REMARKS
LA GUARDIA NY  CLOUDY    56  43  61 NE9       30.13F
RALEIGH NC     RAIN      56  55  97 NE10      29.79F FOG
ATLANTA GA     PTSUNNY   63  57  81 NW10      29.74F
NEW ORLEANS LA FAIR      75  51  43 NW14      29.84F
OKLAHOMA CITY  FAIR      74  47  38 S25G33    29.69F
ALBUQUERQUE NM PTSUNNY   77  12   8 SW17G35   29.78F
SALT LAKE CITY LGT RAIN  50  39  66 NW14      29.72R
LOS ANGELES CA PTSUNNY   67  55  65 W13       29.94F
BOISE ID       CLOUDY    49  39  68 NW6       29.73F
SEATTLE WA     PTSUNNY   50  42  74 W10       29.73S
$$

*** WEATHER ACROSS MANITOBA...SASKATCHEWAN AND ONTARIO ***
                ***ONTARIO***

CITY           SKY/WX    TMP DP  RH WIND       PRES   REMARKS
GERALDTON      LGT SNOW  28  27  93 E10G18    30.11F VSB 1   WCI  19
THUNDER BAY    CLOUDY    36  30  80 E24G32    29.98F
SIOUX LOOKOUT  SNOW      27  25  93 E10G26    29.87F VSB 1/2 WCI  17
TORONTO        PTSUNNY   54  34  47 E13G21    30.11F
BIG TROUT LK   SUNNY     23  -4  30 E5        30.25S WCI  17
PICKLE LAKE    CLOUDY    32   9  37 E16G24    30.05F WCI  21
DRYDEN         LGT SNOW  28  27  93 E16G25    29.84F VSB 3/4 WCI  17
KENORA         SNOW      28  27  93 E15G24    29.77F VSB 1/2 WCI  17
$$
                *** MANITOBA***

CITY           SKY/WX    TMP DP  RH WIND       PRES   REMARKS
BRANDON        LGT SNOW  30  27  86 E24G32    29.80S WCI  16
DAUPHIN        FLURRIES  32  23  69 NE23G30   29.91S WCI  19
ISLAND LAKE    PTSUNNY   30   5  34 E9        30.15S WCI  22
PILOT MOUND      N/A     30  28  93 NE14G21     N/A  WCI  20
THE PAS        PTSUNNY   32   5  32 NE12G21   30.08S WCI  23
THOMPSON       MOSUNNY   23  -2  33 NE7       30.21F WCI  15
WINNIPEG       SNOWSHWR  32  30  93 NE21G29   29.79S VSB 3/4 WCI  20
LYNN LAKE      SUNNY     23   3  42 E12       30.17F WCI  12
CHURCHILL      PTSUNNY    3  -4  72 NW13      30.42F WCI -14
GILLAM         MOSUNNY   16  -4  41 NE7       30.33F WCI   6
$$
                ***SASKATCHEWAN***

CITY           SKY/WX    TMP DP  RH WIND       PRES   REMARKS
ESTEVAN        CLOUDY    30  23  74 NE20      29.76S WCI  18
KINDERSLEY     CLOUDY    36  30  80 E14G21    29.75R
LLOYDMINSTER   LGT SNOW  34  32  93 SE14G20   29.79R WCI  24
PRINCE ALBERT  FLURRIES  34  27  75 E13G22    29.94S WCI  25
REGINA         PTSUNNY   30  23  74 E15       29.82S WCI  19
YORKTON        FLURRIES  30  27  86 NE15      29.89S WC



USA.gov is the U.S. government's official web portal to all federal, state and local government web resources and services.